FW5236 Weather Reports


Display with metric or nautical units.
time (UTC)temp
F
wind
direction
speed
MPH
gust
MPH
rain 1hr
in
rain 24hr
in
rain mn
in
humidity
%
barometer
mb
20260507011530 67 44 0.0 4.0 0.00 0.00 0.00 48 1019.5
20260507010030 68 38 1.0 5.0 0.00 0.00 0.00 46 1019.3
20260507004530 68 40 1.0 7.0 0.00 0.00 0.00 46 1019.2
20260507003105 69 33 0.0 4.0 0.00 0.00 0.00 45 1019.1
20260507001605 69 48 0.0 5.0 0.00 0.00 0.00 44 1019.1
20260507000031 70 43 1.0 5.0 0.00 0.00 0.00 43 1019.0
20260506234531 72 45 2.0 7.0 0.00 0.00 0.00 42 1018.8
20260506233029 72 42 3.0 11.0 0.00 0.00 0.00 42 1018.6
20260506231531 73 31 4.0 10.0 0.00 0.00 0.00 42 1018.5
20260506230029 71 25 5.0 14.0 0.00 0.00 0.00 43 1018.5
20260506221530 72 19 4.0 12.0 0.00 0.00 0.00 44 1019.1
20260506220031 73 27 2.0 11.0 0.00 0.00 0.00 43 1019.0
20260506214532 74 30 2.0 7.0 0.00 0.00 0.00 43 1018.8
20260506213029 74 35 2.0 7.0 0.00 0.00 0.00 43 1018.8
20260506211528 74 28 3.0 13.0 0.00 0.00 0.00 44 1018.9
20260506203146 73 28 3.0 10.0 0.00 0.00 0.00 47 1019.2
20260506201602 73 26 3.0 13.0 0.00 0.00 0.00 48 1019.1
20260506194532 71 37 3.0 8.0 0.00 0.00 0.00 50 1019.1
20260506193030 70 42 4.0 9.0 0.00 0.00 0.00 52 1019.1
20260506191531 70 52 4.0 10.0 0.00 0.00 0.00 54 1019.3
20260506190034 69 44 3.0 7.0 0.00 0.00 0.00 55 1019.4
20260506184529 68 46 4.0 16.0 0.00 0.00 0.00 56 1019.3
20260506183028 67 41 4.0 12.0 0.00 0.00 0.00 57 1019.3
20260506181529 68 44 4.0 10.0 0.00 0.00 0.00 57 1019.4
20260506180033 69 44 3.0 8.0 0.00 0.00 0.00 57 1019.4
20260506174528 69 44 2.0 9.0 0.00 0.00 0.00 58 1019.4
20260506171529 67 22 2.0 7.0 0.00 0.00 0.00 60 1019.3
20260506170108 66 28 2.0 7.0 0.00 0.00 0.00 61 1019.7
20260506164529 65 26 2.0 8.0 0.00 0.00 0.00 62 1020.0
20260506163030 64 33 3.0 11.0 0.00 0.00 0.00 63 1020.0
20260506161531 64 27 3.0 10.0 0.00 0.00 0.00 64 1019.9
20260506160145 63 34 3.0 9.0 0.00 0.00 0.00 65 1019.8
20260506154528 62 35 2.0 8.0 0.00 0.00 0.00 67 1019.6
20260506151531 60 60 2.0 8.0 0.00 0.00 0.00 72 1019.7
20260506150032 58 48 2.0 8.0 0.00 0.00 0.00 78 1019.8
20260506144530 54 259 0.0 4.0 0.00 0.00 0.00 83 1019.9
20260506143029 52 238 2.0 4.0 0.00 0.00 0.00 85 1019.8
20260506141530 52 266 1.0 4.0 0.00 0.00 0.00 87 1019.7
20260506140026 49 275 1.0 5.0 0.00 0.00 0.00 89 1019.5
20260506134535 48 242 3.0 7.0 0.00 0.00 0.00 90 1019.3
20260506133032 48 262 1.0 6.0 0.00 0.00 0.00 91 1019.2
20260506131531 47 273 1.0 4.0 0.00 0.00 0.00 91 1019.2
20260506130103 48 264 2.0 4.0 0.00 0.00 0.00 91 1018.9
20260506123032 46 254 2.0 5.0 0.00 0.00 0.00 92 1018.6
20260506121608 47 236 1.0 4.0 0.00 0.00 0.00 92 1018.6
20260506113030 46 244 2.0 5.0 0.00 0.00 0.00 91 1018.3
20260506111532 47 231 2.0 4.0 0.00 0.00 0.00 91 1018.2
20260506110030 47 227 2.0 3.0 0.00 0.00 0.00 91 1018.1
20260506104533 47 240 2.0 4.0 0.00 0.00 0.00 91 1018.0
20260506101605 48 237 2.0 4.0 0.00 0.00 0.00 91 1018.0
20260506093030 48 244 2.0 4.0 0.00 0.00 0.00 91 1017.8
20260506091531 49 239 1.0 4.0 0.00 0.00 0.00 91 1017.7
20260506090029 49 235 2.0 5.0 0.00 0.00 0.00 90 1017.7
20260506084530 50 242 1.0 4.0 0.00 0.00 0.00 90 1017.6
20260506083028 50 248 0.0 3.0 0.00 0.00 0.00 90 1017.5
20260506081530 50 227 1.0 2.0 0.00 0.00 0.00 89 1017.4
20260506073033 51 225 1.0 2.0 0.00 0.00 0.00 87 1017.0
20260506071646 52 225 1.0 2.0 0.00 0.00 0.00 87 1016.9
20260506070103 52 225 0.0 2.0 0.00 0.00 0.00 85 1016.8
20260506061606 54 318 0.0 3.0 0.00 0.00 0.00 83 1016.6
20260506044530 56 48 0.0 2.0 0.00 0.00 0.00 78 1015.9
20260506043029 56 35 0.0 2.0 0.00 0.00 0.00 77 1015.7
20260506041526 57 33 0.0 1.0 0.00 0.00 0.00 75 1015.6
20260506040045 58 45 0.0 0.0 0.00 0.00 0.00 72 1015.3
20260506034527 60 4 0.0 0.0 0.00 0.00 0.00 70 1015.0
20260506031530 64 303 0.0 2.0 0.00 0.00 0.00 63 1014.6
20260506030105 66 292 0.0 1.0 0.00 0.00 0.00 58 1014.4
20260506024530 68 306 0.0 2.0 0.00 0.00 0.00 56 1014.2
20260506023029 69 304 0.0 2.0 0.00 0.00 0.00 54 1014.2
20260506021609 71 346 1.0 5.0 0.00 0.00 0.00 52 1014.0
20260506020144 72 47 1.0 4.0 0.00 0.00 0.00 51 1013.9
20260506014531 72 37 1.0 3.0 0.00 0.00 0.00 50 1013.9
20260506013031 73 29 1.0 4.0 0.00 0.00 0.00 50 1013.9